Lastest Insider Transactions Of Texas Pacific Land Corp ( TPL )
SymbolCompany NameInsider NameTitleDateTransationSharePriceAmountFile Date
TPLTexas Pacific Land CorpSTAHL MURRAYDirectior2024-02-27Buy121587.1019,0452024-02-28 13:43:28
TPLTexas Pacific Land CorpSTAHL MURRAYDirectior2024-02-26Buy121560.2318,7232024-02-27 12:37:31
TPLTexas Pacific Land CorpSTAHL MURRAYDirectior2024-02-22Buy121563.4218,7612024-02-23 16:44:34
TPLTexas Pacific Land CorpSTAHL MURRAYDirectior2024-02-22Buy1218825.18225,9022024-02-23 11:29:23
TPLTexas Pacific Land CorpSTAHL MURRAYDirectior2024-02-21Buy121522.3818,2692024-02-22 13:16:32
TPLTexas Pacific Land CorpSTAHL MURRAYDirectior2024-02-20Buy121490.9817,8922024-02-21 12:41:58
TPLTexas Pacific Land CorpSTAHL MURRAYDirectior2024-02-16Buy121511.8118,1422024-02-20 11:41:07
TPLTexas Pacific Land CorpSTAHL MURRAYDirectior2024-02-15Buy121487.5617,8512024-02-16 11:30:12
TPLTexas Pacific Land CorpSTAHL MURRAYDirectior2024-02-14Buy121436.6817,2402024-02-15 12:07:07
TPLTexas Pacific Land CorpSTAHL MURRAYDirectior2024-02-13Buy121424.5417,0942024-02-14 11:46:02
TPLTexas Pacific Land CorpGLOVER TYLERPresident & CEO2024-02-10Option Exercise7100.0002024-02-13 16:04:23
TPLTexas Pacific Land CorpBUFFINGTON STEPHANIEChief Accounting Officer2024-02-10Option Exercise1200.0002024-02-13 16:03:19
TPLTexas Pacific Land CorpDobbs Micheal W.Senior VP, Secretary and GC2024-02-10Option Exercise1960.0002024-02-13 16:02:15
TPLTexas Pacific Land CorpSTEDDUM CHRISChief Financial Officer2024-02-10Option Exercise3130.0002024-02-13 16:01:28
TPLTexas Pacific Land CorpSTAHL MURRAYDirectior2024-02-12Buy121466.3517,5962024-02-13 11:39:39
TPLTexas Pacific Land CorpSTAHL MURRAYDirectior2024-02-09Buy121466.1117,5932024-02-12 11:22:00
TPLTexas Pacific Land CorpSTAHL MURRAYDirectior2024-02-08Buy121481.8217,7822024-02-09 10:44:50
TPLTexas Pacific Land CorpSTAHL MURRAYDirectior2024-02-07Buy121490.8517,8902024-02-08 13:24:59
TPLTexas Pacific Land CorpSTAHL MURRAYDirectior2024-02-06Buy121444.4317,3332024-02-07 10:48:49
TPLTexas Pacific Land CorpSTAHL MURRAYDirectior2024-02-05Buy121428.9817,1482024-02-06 12:26:42
TPLTexas Pacific Land CorpSTAHL MURRAYDirectior2024-02-02Buy121438.1417,2582024-02-05 14:43:57
TPLTexas Pacific Land CorpSTAHL MURRAYDirectior2024-02-01Buy121449.6217,3952024-02-02 14:36:46
TPLTexas Pacific Land CorpSTAHL MURRAYDirectior2024-01-31Buy121461.3317,5362024-02-01 12:09:14
TPLTexas Pacific Land CorpSTAHL MURRAYDirectior2024-01-30Buy111504.2016,5462024-01-31 13:37:34
TPLTexas Pacific Land CorpSTAHL MURRAYDirectior2024-01-29Buy101519.7315,1972024-01-30 13:11:49
TPLTexas Pacific Land CorpSTAHL MURRAYDirectior2024-01-26Buy101489.2814,8932024-01-29 13:45:15
TPLTexas Pacific Land CorpSTAHL MURRAYDirectior2024-01-25Buy101493.8414,9382024-01-26 14:18:25
TPLTexas Pacific Land CorpSTAHL MURRAYDirectior2024-01-24Buy101505.6015,0562024-01-25 15:22:20
TPLTexas Pacific Land CorpSTAHL MURRAYDirectior2024-01-23Buy101490.6214,9062024-01-24 16:03:10
TPLTexas Pacific Land CorpSTAHL MURRAYDirectior2024-01-22Buy101489.6814,8972024-01-23 12:53:54
TPLTexas Pacific Land CorpSTAHL MURRAYDirectior2024-01-19Buy101487.4114,8742024-01-22 12:00:27
TPLTexas Pacific Land CorpSTAHL MURRAYDirectior2024-01-18Buy121484.3717,8122024-01-19 12:35:07
TPLTexas Pacific Land CorpSTAHL MURRAYDirectior2024-01-17Buy121471.4017,6572024-01-18 15:31:14
TPLTexas Pacific Land CorpSTAHL MURRAYDirectior2024-01-16Buy121475.1417,7022024-01-17 15:52:18
TPLTexas Pacific Land CorpSTAHL MURRAYDirectior2024-01-12Buy121531.2218,3752024-01-16 11:24:02
TPLTexas Pacific Land CorpSTAHL MURRAYDirectior2024-01-11Buy121508.4218,1012024-01-12 10:42:53
TPLTexas Pacific Land CorpSTAHL MURRAYDirectior2024-01-10Buy121512.2918,1472024-01-11 11:51:31
TPLTexas Pacific Land CorpSTAHL MURRAYDirectior2024-01-09Buy121531.9218,3832024-01-10 12:19:07
TPLTexas Pacific Land CorpSTAHL MURRAYDirectior2024-01-08Buy121536.7718,4412024-01-09 11:46:01
TPLTexas Pacific Land CorpSTAHL MURRAYDirectior2024-01-05Buy121555.2518,6632024-01-08 12:17:37
TPLTexas Pacific Land CorpSTAHL MURRAYDirectior2024-01-04Buy121550.5018,6062024-01-05 11:49:28
TPLTexas Pacific Land CorpSTAHL MURRAYDirectior2024-01-03Buy121595.5819,1472024-01-04 16:44:12
TPLTexas Pacific Land CorpSTAHL MURRAYDirectior2024-01-01Buy121604.6119,2552024-01-03 13:56:20
TPLTexas Pacific Land CorpSTAHL MURRAYDirectior2023-12-29Buy121572.4518,8692024-01-02 12:43:46
TPLTexas Pacific Land CorpSTAHL MURRAYDirectior2023-12-28Buy121598.1219,1772023-12-29 11:42:07
TPLTexas Pacific Land CorpSTAHL MURRAYDirectior2023-12-27Buy121637.0319,6442023-12-28 11:04:44
TPLTexas Pacific Land CorpSTAHL MURRAYDirectior2023-12-26Buy121638.5119,6622023-12-27 13:20:03
TPLTexas Pacific Land CorpSTAHL MURRAYDirectior2023-12-22Buy121615.8019,3902023-12-26 11:06:07
TPLTexas Pacific Land CorpSTAHL MURRAYDirectior2023-12-21Buy121618.0219,4162023-12-22 13:38:38
TPLTexas Pacific Land CorpSTAHL MURRAYDirectior2023-12-20Buy121613.6919,3642023-12-21 14:12:46
TPLTexas Pacific Land CorpSTAHL MURRAYDirectior2023-12-19Buy121627.3719,5282023-12-20 12:16:25
TPLTexas Pacific Land CorpSTAHL MURRAYDirectior2023-12-18Buy111602.3717,6262023-12-19 14:32:27
TPLTexas Pacific Land CorpSTAHL MURRAYDirectior2023-12-15Buy121597.2319,1672023-12-19 12:36:28
TPLTexas Pacific Land CorpSTAHL MURRAYDirectior2023-12-15Buy121597.2319,1672023-12-18 12:43:08
TPLTexas Pacific Land CorpHORIZON KINETICS ASSET MANAGEMENT LLC 10% Owner2023-12-14Buy31603.954,8122023-12-15 11:01:35
TPLTexas Pacific Land CorpHORIZON KINETICS ASSET MANAGEMENT LLC 10% Owner2023-12-13Buy31574.414,7232023-12-14 11:43:22
TPLTexas Pacific Land CorpHORIZON KINETICS ASSET MANAGEMENT LLC 10% Owner2023-12-12Buy31545.714,6372023-12-13 11:16:01
TPLTexas Pacific Land CorpHORIZON KINETICS ASSET MANAGEMENT LLC 10% Owner2023-12-11Buy31554.654,6642023-12-12 11:14:05
TPLTexas Pacific Land CorpHORIZON KINETICS ASSET MANAGEMENT LLC 10% Owner2023-12-08Buy31546.124,6382023-12-11 11:38:07
TPLTexas Pacific Land CorpHORIZON KINETICS ASSET MANAGEMENT LLC 10% Owner2023-12-07Buy31516.524,5502023-12-08 11:43:45
TPLTexas Pacific Land CorpHORIZON KINETICS ASSET MANAGEMENT LLC 10% Owner2023-12-06Buy31485.684,4572023-12-07 11:11:07
TPLTexas Pacific Land CorpHORIZON KINETICS ASSET MANAGEMENT LLC 10% Owner2023-12-05Buy31487.804,4632023-12-06 15:24:51
TPLTexas Pacific Land CorpHORIZON KINETICS ASSET MANAGEMENT LLC 10% Owner2023-12-04Buy31597.164,7912023-12-05 10:54:21
TPLTexas Pacific Land CorpHORIZON KINETICS ASSET MANAGEMENT LLC 10% Owner2023-12-01Buy31746.285,2392023-12-04 11:56:05
TPLTexas Pacific Land CorpHORIZON KINETICS ASSET MANAGEMENT LLC 10% Owner2023-11-30Buy31671.955,0162023-12-01 12:09:31
TPLTexas Pacific Land CorpHORIZON KINETICS ASSET MANAGEMENT LLC 10% Owner2023-11-29Buy31652.074,9562023-11-30 10:35:10
TPLTexas Pacific Land CorpHORIZON KINETICS ASSET MANAGEMENT LLC 10% Owner2023-11-28Buy31618.124,8542023-11-29 12:04:03
TPLTexas Pacific Land CorpHORIZON KINETICS ASSET MANAGEMENT LLC 10% Owner2023-11-27Buy31637.024,9112023-11-28 11:23:22
TPLTexas Pacific Land CorpHORIZON KINETICS ASSET MANAGEMENT LLC 10% Owner2023-11-24Buy31650.004,9502023-11-27 12:02:27
TPLTexas Pacific Land CorpHORIZON KINETICS ASSET MANAGEMENT LLC 10% Owner2023-11-22Buy31642.004,9262023-11-24 10:59:45
TPLTexas Pacific Land CorpHORIZON KINETICS ASSET MANAGEMENT LLC 10% Owner2023-11-21Buy31641.484,9242023-11-22 11:49:28
TPLTexas Pacific Land CorpHORIZON KINETICS ASSET MANAGEMENT LLC 10% Owner2023-11-20Buy31639.404,9182023-11-21 11:26:08
TPLTexas Pacific Land CorpBEST RHYS JDirectior2023-11-20Buy751682.48126,1862023-11-20 16:00:31
TPLTexas Pacific Land CorpHORIZON KINETICS ASSET MANAGEMENT LLC 10% Owner2023-11-17Buy31652.004,9562023-11-20 11:11:35
TPLTexas Pacific Land CorpHORIZON KINETICS ASSET MANAGEMENT LLC 10% Owner2023-11-16Buy31612.584,8382023-11-17 11:05:59
TPLTexas Pacific Land CorpHORIZON KINETICS ASSET MANAGEMENT LLC 10% Owner2023-11-15Buy31682.795,0482023-11-16 11:46:44
TPLTexas Pacific Land CorpHORIZON KINETICS ASSET MANAGEMENT LLC 10% Owner2023-11-14Buy31703.955,1122023-11-15 10:43:54
TPLTexas Pacific Land CorpHORIZON KINETICS ASSET MANAGEMENT LLC 10% Owner2023-11-13Buy31661.374,9842023-11-14 10:57:17
TPLTexas Pacific Land CorpHORIZON KINETICS ASSET MANAGEMENT LLC 10% Owner2023-11-09Buy61649.789,8992023-11-13 11:04:10
TPLTexas Pacific Land CorpHORIZON KINETICS ASSET MANAGEMENT LLC 10% Owner2023-11-08Buy31650.554,9522023-11-09 12:23:22
TPLTexas Pacific Land CorpCook Donald GDirectior2023-11-07Buy51733.118,6662023-11-08 16:01:17
TPLTexas Pacific Land CorpHORIZON KINETICS ASSET MANAGEMENT LLC 10% Owner2023-11-07Buy31696.815,0902023-11-08 11:20:55
TPLTexas Pacific Land CorpHORIZON KINETICS ASSET MANAGEMENT LLC 10% Owner2023-11-06Buy31759.485,2782023-11-07 11:49:11
TPLTexas Pacific Land CorpHORIZON KINETICS ASSET MANAGEMENT LLC 10% Owner2023-11-03Buy31809.015,4272023-11-06 11:01:38
TPLTexas Pacific Land CorpHORIZON KINETICS ASSET MANAGEMENT LLC 10% Owner2023-11-02Buy31797.805,3932023-11-03 11:48:42
TPLTexas Pacific Land CorpHORIZON KINETICS ASSET MANAGEMENT LLC 10% Owner2023-11-01Buy31842.745,5282023-11-02 11:50:50
TPLTexas Pacific Land CorpHORIZON KINETICS ASSET MANAGEMENT LLC 10% Owner2023-10-31Buy31845.955,5382023-11-01 12:40:52
TPLTexas Pacific Land CorpHORIZON KINETICS ASSET MANAGEMENT LLC 10% Owner2023-10-30Buy11836.361,8362023-10-31 11:06:32
TPLTexas Pacific Land CorpHORIZON KINETICS ASSET MANAGEMENT LLC 10% Owner2023-10-27Buy11819.571,8202023-10-30 11:02:58
TPLTexas Pacific Land CorpHORIZON KINETICS ASSET MANAGEMENT LLC 10% Owner2023-10-26Buy11856.231,8562023-10-27 12:39:43
TPLTexas Pacific Land CorpHORIZON KINETICS ASSET MANAGEMENT LLC 10% Owner2023-10-25Buy11859.011,8592023-10-26 11:39:26
TPLTexas Pacific Land CorpHORIZON KINETICS ASSET MANAGEMENT LLC 10% Owner2023-10-24Buy21812.153,6242023-10-25 11:07:18
TPLTexas Pacific Land CorpHORIZON KINETICS ASSET MANAGEMENT LLC 10% Owner2023-10-23Buy31856.345,5692023-10-24 11:28:54
TPLTexas Pacific Land CorpHORIZON KINETICS ASSET MANAGEMENT LLC 10% Owner2023-10-20Buy31913.755,7412023-10-23 11:49:07
TPLTexas Pacific Land CorpHORIZON KINETICS ASSET MANAGEMENT LLC 10% Owner2023-10-19Buy31965.025,8952023-10-20 10:39:12
TPLTexas Pacific Land CorpHORIZON KINETICS ASSET MANAGEMENT LLC 10% Owner2023-10-18Buy31978.325,9352023-10-19 13:17:42
TPLTexas Pacific Land CorpHORIZON KINETICS ASSET MANAGEMENT LLC 10% Owner2023-10-17Buy31938.235,8152023-10-18 11:31:36
TPLTexas Pacific Land CorpHORIZON KINETICS ASSET MANAGEMENT LLC 10% Owner2023-10-16Buy31910.035,7302023-10-17 10:34:46
TPLTexas Pacific Land CorpHORIZON KINETICS ASSET MANAGEMENT LLC 10% Owner2023-10-13Buy31874.785,6242023-10-16 11:45:25
TPLTexas Pacific Land CorpHORIZON KINETICS ASSET MANAGEMENT LLC 10% Owner2023-10-12Buy31862.975,5892023-10-13 11:56:24
TPLTexas Pacific Land CorpHORIZON KINETICS ASSET MANAGEMENT LLC 10% Owner2023-10-11Buy31847.555,5432023-10-12 14:59:50
TPLTexas Pacific Land CorpHORIZON KINETICS ASSET MANAGEMENT LLC 10% Owner2023-10-10Buy31835.295,5062023-10-11 11:10:26
TPLTexas Pacific Land CorpHORIZON KINETICS ASSET MANAGEMENT LLC 10% Owner2023-10-06Buy61788.3110,7302023-10-10 12:24:50
TPLTexas Pacific Land CorpHORIZON KINETICS ASSET MANAGEMENT LLC 10% Owner2023-10-05Buy31768.295,3052023-10-06 10:47:14
TPLTexas Pacific Land CorpHORIZON KINETICS ASSET MANAGEMENT LLC 10% Owner2023-10-04Buy31756.675,2702023-10-05 11:39:29
TPLTexas Pacific Land CorpHORIZON KINETICS ASSET MANAGEMENT LLC 10% Owner2023-10-03Buy31783.035,3492023-10-04 11:01:56
TPLTexas Pacific Land CorpHORIZON KINETICS ASSET MANAGEMENT LLC 10% Owner2023-10-02Buy31748.935,2472023-10-03 11:21:38
TPLTexas Pacific Land CorpHORIZON KINETICS ASSET MANAGEMENT LLC 10% Owner2023-09-29Buy31823.565,4712023-10-02 12:27:21
TPLTexas Pacific Land CorpHORIZON KINETICS ASSET MANAGEMENT LLC 10% Owner2023-09-28Buy31891.465,6742023-09-29 10:38:29
TPLTexas Pacific Land CorpHORIZON KINETICS ASSET MANAGEMENT LLC 10% Owner2023-09-27Buy31870.405,6112023-09-28 11:16:56
TPLTexas Pacific Land CorpHORIZON KINETICS ASSET MANAGEMENT LLC 10% Owner2023-09-26Buy31847.645,5432023-09-27 11:24:00
TPLTexas Pacific Land CorpHORIZON KINETICS ASSET MANAGEMENT LLC 10% Owner2023-09-25Buy31859.935,5802023-09-26 10:10:47
TPLTexas Pacific Land CorpHORIZON KINETICS ASSET MANAGEMENT LLC 10% Owner2023-09-22Buy31840.695,5222023-09-25 12:05:09
TPLTexas Pacific Land CorpHORIZON KINETICS ASSET MANAGEMENT LLC 10% Owner2023-09-21Buy31870.475,6112023-09-22 11:04:28
TPLTexas Pacific Land CorpHORIZON KINETICS ASSET MANAGEMENT LLC 10% Owner2023-09-18Buy51819.599,0982023-09-19 11:09:24
TPLTexas Pacific Land CorpSTAHL MURRAYDirectior2023-09-15Buy171771.1230,1092023-09-18 12:59:31
TPLTexas Pacific Land CorpSTAHL MURRAYDirectior2023-09-14Buy201793.9235,8782023-09-15 12:01:28
TPLTexas Pacific Land CorpSTAHL MURRAYDirectior2023-09-13Buy201772.9235,4582023-09-14 12:50:06
TPLTexas Pacific Land CorpSTAHL MURRAYDirectior2023-09-12Buy201811.0636,2212023-09-13 11:15:52
TPLTexas Pacific Land CorpSTAHL MURRAYDirectior2023-09-11Buy201743.1134,8622023-09-12 11:11:14
TPLTexas Pacific Land CorpSTAHL MURRAYDirectior2023-09-08Buy201849.4936,9902023-09-11 11:44:04
TPLTexas Pacific Land CorpDobbs Micheal W.Senior VP, Secretary and GC2023-09-08Sell1001851.77185,1772023-09-08 17:45:20
TPLTexas Pacific Land CorpSTAHL MURRAYDirectior2023-09-07Buy201836.3936,7282023-09-08 11:45:53
TPLTexas Pacific Land CorpSTAHL MURRAYDirectior2023-09-06Buy201830.9736,6192023-09-07 10:57:45
TPLTexas Pacific Land CorpSTAHL MURRAYDirectior2023-09-05Buy201808.0036,1602023-09-06 12:40:59
TPLTexas Pacific Land CorpBUFFINGTON STEPHANIEChief Accounting Officer2023-09-01Option Exercise930.0002023-09-05 16:00:37
TPLTexas Pacific Land CorpSTAHL MURRAYDirectior2023-09-01Buy201908.3338,1672023-09-05 11:36:10
TPLTexas Pacific Land CorpSTAHL MURRAYPresident and CEO2023-09-01Buy4201.877852023-09-05 11:17:20
TPLTexas Pacific Land CorpSTAHL MURRAYDirectior2023-08-31Buy201884.7537,6952023-09-01 11:47:21
TPLTexas Pacific Land CorpSTAHL MURRAYDirectior2023-08-30Buy201942.6038,8522023-08-31 11:38:50
TPLTexas Pacific Land CorpSTAHL MURRAYDirectior2023-08-29Buy201933.9238,6782023-08-30 13:31:39
TPLTexas Pacific Land CorpSTAHL MURRAYDirectior2023-08-28Buy201919.2538,3852023-08-30 12:09:13
TPLTexas Pacific Land CorpSTAHL MURRAYDirectior2023-08-28Buy201919.2538,3852023-08-29 11:01:42
TPLTexas Pacific Land CorpSTAHL MURRAYDirectior2023-08-25Buy211902.1639,9452023-08-28 11:32:59
TPLTexas Pacific Land CorpSTAHL MURRAYDirectior2023-08-24Buy211887.2039,6312023-08-25 12:00:46
TPLTexas Pacific Land CorpSTAHL MURRAYDirectior2023-08-23Buy211876.3139,4032023-08-24 12:08:00
TPLTexas Pacific Land CorpSTAHL MURRAYDirectior2023-08-22Buy211882.1439,5252023-08-23 10:37:47
TPLTexas Pacific Land CorpSTAHL MURRAYDirectior2023-08-21Buy211876.4439,4052023-08-22 11:52:06
TPLTexas Pacific Land CorpSTAHL MURRAYDirectior2023-08-18Buy211907.7340,0622023-08-21 11:25:22
TPLTexas Pacific Land CorpSTAHL MURRAYDirectior2023-08-17Buy211908.4840,0782023-08-18 12:09:13
TPLTexas Pacific Land CorpSTAHL MURRAYDirectior2023-08-16Buy211858.3839,0262023-08-17 10:42:57
TPLTexas Pacific Land CorpSTAHL MURRAYDirectior2023-08-15Buy211848.8438,8262023-08-16 13:08:31
TPLTexas Pacific Land CorpSTAHL MURRAYDirectior2023-08-14Buy211876.1139,3982023-08-15 12:07:30
TPLTexas Pacific Land CorpSTAHL MURRAYDirectior2023-08-11Buy211885.0139,5852023-08-14 11:02:28
TPLTexas Pacific Land CorpSTAHL MURRAYDirectior2023-08-10Buy211818.1038,1802023-08-11 11:19:10
TPLTexas Pacific Land CorpSTAHL MURRAYDirectior2023-08-09Buy211792.8837,6502023-08-10 10:37:49
TPLTexas Pacific Land CorpSTAHL MURRAYDirectior2023-08-08Buy211765.2637,0702023-08-09 10:25:09
TPLTexas Pacific Land CorpSTAHL MURRAYDirectior2023-08-07Buy211746.0236,6662023-08-08 11:01:00
TPLTexas Pacific Land CorpSTAHL MURRAYDirectior2023-08-04Buy201712.2434,2452023-08-07 11:09:25
TPLTexas Pacific Land CorpSTAHL MURRAYDirectior2023-08-03Buy201611.2332,2252023-08-04 11:15:37
TPLTexas Pacific Land CorpSTAHL MURRAYDirectior2023-08-02Buy201517.6130,3522023-08-03 12:13:48
TPLTexas Pacific Land CorpSTAHL MURRAYDirectior2023-08-01Buy91478.5013,3072023-08-02 14:48:37
TPLTexas Pacific Land CorpSTAHL MURRAYDirectior2023-07-31Buy91543.3313,8902023-08-01 11:21:13
TPLTexas Pacific Land CorpSTAHL MURRAYDirectior2023-07-28Buy91505.0513,5452023-07-31 16:01:35
TPLTexas Pacific Land CorpSTAHL MURRAYDirectior2023-07-27Buy91510.7913,5972023-07-31 14:45:02
TPLTexas Pacific Land CorpSTAHL MURRAYDirectior2023-07-26Buy91511.3113,6022023-07-31 14:29:21
TPLTexas Pacific Land CorpSTAHL MURRAYDirectior2023-07-25Buy71512.0510,5842023-07-31 14:05:10
TPLTexas Pacific Land CorpSTAHL MURRAYDirectior2023-07-27Buy91510.7913,5972023-07-28 11:26:59
TPLTexas Pacific Land CorpSTAHL MURRAYDirectior2023-07-26Buy91511.3113,6022023-07-28 08:32:45
TPLTexas Pacific Land CorpSTAHL MURRAYDirectior2023-07-26Buy91511.3113,6022023-07-27 11:47:05
TPLTexas Pacific Land CorpSTAHL MURRAYDirectior2023-07-25Buy71512.0510,5842023-07-26 11:53:57
TPLTexas Pacific Land CorpSTAHL MURRAYDirectior2023-07-24Buy201491.2329,8252023-07-25 11:17:19
TPLTexas Pacific Land CorpSTAHL MURRAYDirectior2023-07-21Buy201469.2629,3852023-07-24 15:03:57
TPLTexas Pacific Land CorpSTAHL MURRAYDirectior2023-07-20Buy201445.3328,9072023-07-21 11:46:43
TPLTexas Pacific Land CorpSTAHL MURRAYDirectior2023-07-19Buy201443.1028,8622023-07-20 14:27:16
TPLTexas Pacific Land CorpSTAHL MURRAYDirectior2023-07-18Buy91429.4012,8652023-07-19 13:01:24
TPLTexas Pacific Land CorpSTAHL MURRAYDirectior2023-07-17Buy201401.2628,0252023-07-18 12:01:02
TPLTexas Pacific Land CorpSTAHL MURRAYDirectior2023-07-14Buy201369.0027,3802023-07-17 12:25:51
TPLTexas Pacific Land CorpSTAHL MURRAYDirectior2023-07-13Buy201436.1728,7232023-07-14 10:58:47
TPLTexas Pacific Land CorpSTAHL MURRAYDirectior2023-07-12Buy201429.0528,5812023-07-13 11:47:54
TPLTexas Pacific Land CorpSTAHL MURRAYDirectior2023-07-11Buy201411.4628,2292023-07-12 11:36:53
TPLTexas Pacific Land CorpSTAHL MURRAYDirectior2023-07-07Buy211348.8028,3252023-07-10 11:58:51
TPLTexas Pacific Land CorpSTAHL MURRAYDirectior2023-07-06Buy211303.1727,3672023-07-07 10:36:03
TPLTexas Pacific Land CorpSTAHL MURRAYDirectior2023-07-05Buy151339.4420,0922023-07-06 11:16:03
TPLTexas Pacific Land CorpSTAHL MURRAYDirectior2023-07-03Buy171349.3322,9392023-07-05 11:02:23
TPLTexas Pacific Land CorpSTAHL MURRAYDirectior2023-07-03Buy171349.3322,9392023-07-05 11:02:23
TPLTexas Pacific Land CorpSTAHL MURRAYDirectior2023-06-30Buy171319.0922,4242023-07-03 11:00:00
TPLTexas Pacific Land CorpSTAHL MURRAYDirectior2023-06-29Buy171319.7122,4352023-06-30 11:18:53
TPLTexas Pacific Land CorpSTAHL MURRAYDirectior2023-06-28Buy171299.7522,0962023-06-29 11:26:28
TPLTexas Pacific Land CorpSTAHL MURRAYDirectior2023-06-27Buy171286.7921,8752023-06-28 11:23:36
TPLTexas Pacific Land CorpSTAHL MURRAYDirectior2023-06-26Buy171298.0222,0662023-06-27 12:20:09
TPLTexas Pacific Land CorpSTAHL MURRAYDirectior2023-06-23Buy171282.6621,8052023-06-26 11:40:47
TPLTexas Pacific Land CorpSTAHL MURRAYDirectior2023-06-22Buy171297.6722,0602023-06-23 11:22:00
TPLTexas Pacific Land CorpSTAHL MURRAYDirectior2023-06-21Buy171331.0022,6272023-06-22 10:41:41
TPLTexas Pacific Land CorpSTAHL MURRAYDirectior2023-06-20Buy171326.7722,5552023-06-21 12:16:30
TPLTexas Pacific Land CorpSTAHL MURRAYDirectior2023-06-16Buy171358.6023,0962023-06-20 12:29:07
TPLTexas Pacific Land CorpSTAHL MURRAYDirectior2023-06-15Buy171362.1023,1562023-06-16 12:53:02
TPLTexas Pacific Land CorpHORIZON KINETICS ASSET MANAGEMENT LLC 10% Owner2023-06-14Buy61330.377,9822023-06-15 10:47:17
TPLTexas Pacific Land CorpHORIZON KINETICS ASSET MANAGEMENT LLC 10% Owner2023-06-13Buy61338.838,0332023-06-14 13:02:21
TPLTexas Pacific Land CorpHORIZON KINETICS ASSET MANAGEMENT LLC 10% Owner2023-06-12Buy61349.148,0952023-06-13 11:06:09
TPLTexas Pacific Land CorpHORIZON KINETICS ASSET MANAGEMENT LLC 10% Owner2023-06-09Buy81392.9411,1442023-06-12 11:22:27
TPLTexas Pacific Land CorpHORIZON KINETICS ASSET MANAGEMENT LLC 10% Owner2023-06-08Buy91410.2812,6932023-06-09 13:33:53
TPLTexas Pacific Land CorpHORIZON KINETICS ASSET MANAGEMENT LLC 10% Owner2023-06-07Buy41427.975,7122023-06-08 09:59:18
TPLTexas Pacific Land CorpHORIZON KINETICS ASSET MANAGEMENT LLC 10% Owner2023-06-06Buy21375.812,7522023-06-07 10:33:59
TPLTexas Pacific Land CorpHORIZON KINETICS ASSET MANAGEMENT LLC 10% Owner2023-06-05Buy21345.252,6912023-06-06 11:22:50
TPLTexas Pacific Land CorpHORIZON KINETICS ASSET MANAGEMENT LLC 10% Owner2023-06-02Buy21372.002,7442023-06-05 11:45:00
TPLTexas Pacific Land CorpHORIZON KINETICS ASSET MANAGEMENT LLC 10% Owner2023-06-01Buy21329.302,6592023-06-02 11:01:50
TPLTexas Pacific Land CorpHORIZON KINETICS ASSET MANAGEMENT LLC 10% Owner2023-05-31Buy21303.702,6072023-06-01 11:33:42
TPLTexas Pacific Land CorpHORIZON KINETICS ASSET MANAGEMENT LLC 10% Owner2023-05-26Buy21315.012,6302023-05-30 10:36:01
TPLTexas Pacific Land CorpHORIZON KINETICS ASSET MANAGEMENT LLC 10% Owner2023-05-25Buy21304.562,6092023-05-26 10:58:06